Hourly Data Report for October 20, 2016

All times are specified in Local Standard Time (LST). Add 1 hour to adjust for Daylight Saving Time where and when it is observed.

SAINT JOHN A
NEW BRUNSWICK

45°18'58.000" N
65°53'24.000" W
108.80 m
8104901
71609
YSJ

Download Data

Hourly Data (October 2016)
Hourly Data Report for October 20, 2016
Temp Definition
°C
Dew Point Temp Definition
°C
Rel Hum Definition
%
Wind Dir Definition
10's deg

Wind Spd Definition
km/h
Visibility Definition
km
Stn Press Definition
kPa
Hmdx Definition


Wind Chill Definition


Weather Definition


TIME
00:00 Legend Double Dagger 9.2 4.0 70 33 17 24.1 100.56     LegendNANA
01:00 Legend Double Dagger 8.5 4.2 74 33 9 24.1 100.65     LegendNANA
02:00 Legend Double Dagger 8.4 4.4 76 31 15 24.1 100.77     Clear
03:00 Legend Double Dagger 6.4 4.1 85 32 10 24.1 100.86     LegendNANA
04:00 Legend Double Dagger 6.0 4.0 87 28 4 24.1 100.92     LegendNANA
05:00 Legend Double Dagger 4.6 4.5 99 31 8 24.1 100.97     Clear
06:00 Legend Double Dagger 1.3 1.3 100 36 1 24.1 101.03     LegendNANA
07:00 Legend Double Dagger 0.8 0.8 100 18 4 24.1 101.13     LegendNANA
08:00 Legend Double Dagger 6.2 5.9 98 36 1 24.1 101.23     Mainly Clear
09:00 Legend Double Dagger 10.1 4.3 67 32 7 24.1 101.28     LegendNANA
10:00 Legend Double Dagger 11.1 3.9 61 34 9 24.1 101.30     LegendNANA
11:00 Legend Double Dagger 14.3 3.2 47 9 10 24.1 101.30     Mainly Clear
12:00 Legend Double Dagger 14.8 3.1 45 6 16 24.1 101.27     LegendNANA
13:00 Legend Double Dagger 14.9 5.2 52 13 14 24.1 101.22     LegendNANA
14:00 Legend Double Dagger 12.8 4.3 56 13 14 24.1 101.25     Mostly Cloudy
15:00 Legend Double Dagger 12.7 4.7 58 14 13 24.1 101.28     LegendNANA
16:00 Legend Double Dagger 12.0 4.8 61 17 5 24.1 101.31     LegendNANA
17:00 Legend Double Dagger 11.2 5.6 68 3 5 24.1 101.37     Mostly Cloudy
18:00 Legend Double Dagger 10.0 5.6 74 6 9 24.1 101.33     LegendNANA
19:00 Legend Double Dagger 8.7 5.5 80 5 7 24.1 101.32     LegendNANA
20:00 Legend Double Dagger 8.8 6.3 84 11 4 24.1 101.30     Cloudy
21:00 Legend Double Dagger 11.0 4.9 66 10 17 24.1 101.23     LegendNANA
22:00 Legend Double Dagger 10.9 6.5 74 10 11 24.1 101.25     LegendNANA
23:00 Legend Double Dagger 11.3 7.3 76 11 18 24.1 101.19     Cloudy

Notes on Data Quality.

Legend

  • E = Estimated
  • M = Missing
  • NA = Not Available
  • ‡ = Partner data that is not subject to review by the National Climate Archives
Date modified: